EW1736 Weather Reports


time (UTC)temp
F
wind
direction
speed
knots
gust
knots
rain 1hr
in
rain 24hr
in
rain mn
in
humidity
%
barometer
mb
20260506034118 64 125 5.2 7.8 0.00 0.17 0.17 93 1028.6
20260506034037 65 119 2.6 7.0 0.00 0.17 0.17 93 1028.6
20260506031111 64 109 4.3 7.0 0.00 0.17 0.17 92 1028.7
20260506025608 65 110 5.2 7.0 0.00 0.17 0.17 92 1028.5
20260506024109 65 118 2.6 5.2 0.00 0.17 0.17 92 1028.7
20260506022603 65 103 1.7 6.1 0.00 0.17 0.17 92 1028.7
20260506021104 65 99 2.6 6.1 0.00 0.17 0.17 92 1028.6
20260506015600 65 109 2.6 5.2 0.00 0.17 0.17 93 1028.6
20260506014057 65 89 2.6 6.1 0.00 0.17 0.17 93 1028.7
20260506012556 65 118 3.5 7.8 0.00 0.17 0.17 93 1028.6
20260506011754 65 95 1.7 6.1 0.00 0.17 0.17 94 1028.7
20260506005552 65 115 3.5 6.1 0.00 0.17 0.17 94 1028.8
20260506004048 65 91 1.7 6.1 0.00 0.17 0.17 95 1029.3
20260506002544 64 105 3.5 7.0 0.00 0.17 0.17 95 1029.3
20260506001744 64 119 2.6 5.2 0.00 0.17 0.17 95 1029.7
20260505235540 65 121 2.6 6.1 0.00 0.17 0.17 96 1029.8
20260505234039 65 111 1.7 5.2 0.00 0.17 0.17 97 1029.8
20260505232536 64 77 3.5 6.1 0.00 0.17 0.17 97 1030.0
20260505231032 64 153 1.7 4.3 0.00 0.17 0.17 98 1030.2
20260505230244 63 191 1.7 5.2 0.00 0.17 0.17 98 1030.2
20260505224029 62 155 3.5 6.1 0.00 0.17 0.17 97 1030.5
20260505222523 62 194 4.3 6.1 0.00 0.17 0.17 98 1030.4
20260505221024 62 171 3.5 7.0 0.00 0.17 0.17 98 1030.5
20260505215520 62 193 2.6 6.1 0.00 0.17 0.17 98 1030.5
20260505214016 61 195 4.3 7.0 0.00 0.17 0.17 98 1030.5
20260505212512 61 212 2.6 7.0 0.02 0.17 0.17 98 1030.6
20260505211007 61 207 5.2 7.0 0.04 0.17 0.17 98 1030.6
20260505205508 61 221 3.5 4.3 0.04 0.17 0.17 98 1030.6
20260505204003 60 210 1.7 5.2 0.04 0.17 0.17 98 1030.7
20260505202504 60 186 2.6 4.3 0.02 0.14 0.15 97 1030.7
20260505200959 60 165 1.7 3.5 0.00 0.13 0.13 97 1030.5
20260505195455 60 163 1.7 4.3 0.00 0.13 0.13 97 1030.4
20260505194651 60 187 0.9 3.5 0.00 0.13 0.13 97 1030.2
20260505192451 60 152 0.9 3.5 0.00 0.13 0.13 97 1030.1
20260505190947 60 159 1.7 4.3 0.00 0.13 0.13 97 1030.0
20260505185447 60 192 0.9 5.2 0.00 0.13 0.13 97 1030.0
20260505183945 60 205 4.3 6.1 0.01 0.13 0.13 97 1029.9
20260505182442 60 209 2.6 7.0 0.01 0.13 0.13 97 1029.7
20260505180931 60 167 4.3 8.7 0.02 0.13 0.13 97 1029.6
20260505175425 60 214 5.2 7.8 0.04 0.13 0.13 97 1029.9
20260505173925 60 188 1.7 4.3 0.09 0.12 0.12 97 1029.9
20260505172421 60 163 1.7 4.3 0.09 0.12 0.12 96 1029.9
20260505170906 60 192 0.9 4.3 0.09 0.11 0.11 96 1030.0
20260505165407 60 236 2.6 6.1 0.06 0.09 0.09 96 1029.9
20260505163858 60 204 4.3 6.1 0.01 0.03 0.03 96 1029.8
20260505162358 60 196 3.5 6.1 0.00 0.02 0.02 96 1029.8
20260505160854 60 190 4.3 7.0 0.00 0.02 0.02 96 1029.8
20260505152352 60 198 4.3 7.8 0.02 0.02 0.02 95 1030.0
20260505151539 60 159 4.3 6.1 0.02 0.02 0.02 95 1030.2
20260505123812 60 192 4.3 7.8 0.00 0.00 0.00 91 1031.4
20260505122312 61 207 5.2 7.8 0.00 0.00 0.00 90 1031.5
20260505121503 61 188 5.2 7.0 0.00 0.00 0.00 90 1031.5
20260505115310 60 164 1.7 6.1 0.00 0.00 0.00 90 1031.5
20260505113806 61 176 3.5 7.0 0.00 0.00 0.00 90 1031.5
20260505112304 61 211 4.3 7.0 0.00 0.00 0.00 90 1031.7
20260505110800 61 186 2.6 5.2 0.00 0.00 0.00 89 1031.9
20260505100748 61 202 3.5 6.1 0.00 0.00 0.00 89 1032.1
20260505095248 61 193 3.5 6.1 0.00 0.00 0.00 89 1032.2
20260505093743 62 175 3.5 5.2 0.00 0.00 0.00 89 1032.2
20260505093646 62 149 1.7 6.1 0.00 0.00 0.00 89 1032.2
20260505090740 64 103 1.7 5.2 0.00 0.00 0.00 90 1032.1
20260505085241 64 121 1.7 5.2 0.00 0.00 0.00 90 1032.1
20260505083737 63 44 0.0 5.2 0.00 0.00 0.00 89 1032.1
20260505082236 62 97 1.7 5.2 0.00 0.00 0.00 89 1032.0
20260505080732 62 155 0.9 2.6 0.00 0.00 0.00 87 1032.0
20260505075932 63 144 0.9 1.7 0.00 0.00 0.00 87 1032.0
20260505073723 63 146 1.7 5.2 0.00 0.00 0.00 87 1031.9
20260505072219 63 107 1.7 3.5 0.00 0.00 0.00 87 1031.9
20260505070724 63 86 2.6 6.1 0.00 0.00 0.00 87 1031.8
20260505065216 63 101 2.6 6.1 0.00 0.00 0.00 86 1031.8
20260505063716 63 93 2.6 6.1 0.00 0.00 0.00 86 1031.7
20260505062213 63 91 2.6 7.8 0.00 0.00 0.00 85 1031.6
20260505060713 63 93 3.5 7.0 0.00 0.00 0.00 85 1031.5
20260505055207 64 75 3.5 8.7 0.00 0.00 0.00 84 1031.4
20260505053708 64 114 4.3 7.0 0.00 0.00 0.00 83 1031.5
20260505052159 64 99 3.5 6.1 0.00 0.00 0.00 83 1031.5
20260505050707 64 94 3.5 6.1 0.00 0.00 0.00 82 1031.6
20260505040653 64 122 3.5 7.0 0.00 0.00 0.00 82 1031.8
20260505035144 64 136 3.5 7.0 0.00 0.00 0.00 81 1031.8